TimeCST,TemperatureF,Dew PointF,Humidity,Sea Level PressureIn,VisibilityMPH,Wind Direction,Wind SpeedMPH,Gust SpeedMPH,PrecipitationIn,Events,Conditions,WindDirDegrees,DateUTC
12:15 AM,51.8,41.0,67,30.10,7.0,NNW,6.9,-,N/A,,Clear,340,2013-02-16 06:15:00
12:35 AM,51.8,41.0,67,30.10,10.0,NNW,6.9,-,N/A,,Clear,340,2013-02-16 06:35:00
12:55 AM,51.8,41.0,67,30.10,10.0,NNW,8.1,-,N/A,,Clear,330,2013-02-16 06:55:00
1:15 AM,51.8,41.0,67,30.10,10.0,NNW,8.1,-,N/A,,Clear,330,2013-02-16 07:15:00
1:35 AM,51.8,41.0,67,30.09,10.0,NNW,6.9,-,N/A,,Clear,330,2013-02-16 07:35:00
1:55 AM,51.8,41.0,67,30.09,10.0,NNW,6.9,-,N/A,,Clear,330,2013-02-16 07:55:00
2:15 AM,51.8,41.0,67,30.09,10.0,NNW,5.8,-,N/A,,Mostly Cloudy,340,2013-02-16 08:15:00
2:35 AM,51.8,41.0,67,30.09,10.0,NNW,5.8,-,N/A,,Mostly Cloudy,340,2013-02-16 08:35:00
2:55 AM,51.8,41.0,67,30.09,10.0,NNW,6.9,-,N/A,,Mostly Cloudy,330,2013-02-16 08:55:00
3:15 AM,51.8,39.2,62,30.09,10.0,NNW,8.1,-,N/A,,Overcast,330,2013-02-16 09:15:00
3:35 AM,51.8,37.4,58,30.09,10.0,NNW,10.4,19.6,N/A,,Overcast,330,2013-02-16 09:35:00
3:55 AM,51.8,37.4,58,30.10,10.0,NNW,11.5,16.1,N/A,,Overcast,330,2013-02-16 09:55:00
4:15 AM,51.8,37.4,58,30.10,10.0,NW,12.7,18.4,N/A,,Overcast,320,2013-02-16 10:15:00
4:35 AM,50.0,35.6,58,30.11,10.0,NNW,12.7,18.4,N/A,,Overcast,330,2013-02-16 10:35:00
4:55 AM,50.0,35.6,58,30.12,10.0,NNW,12.7,23.0,N/A,,Overcast,330,2013-02-16 10:55:00
5:15 AM,50.0,33.8,54,30.12,10.0,NNW,10.4,23.0,N/A,,Overcast,330,2013-02-16 11:15:00
5:35 AM,50.0,33.8,54,30.13,10.0,NNW,10.4,16.1,N/A,,Overcast,330,2013-02-16 11:35:00
5:55 AM,50.0,32.0,50,30.13,10.0,NNW,10.4,17.3,N/A,,Overcast,340,2013-02-16 11:55:00
6:15 AM,50.0,32.0,50,30.12,10.0,NNW,4.6,-,N/A,,Overcast,340,2013-02-16 12:15:00
6:35 AM,50.0,33.8,54,30.13,7.0,NW,5.8,-,N/A,,Mostly Cloudy,310,2013-02-16 12:35:00
6:55 AM,48.2,33.8,58,30.14,7.0,NW,10.4,17.3,N/A,,Scattered Clouds,320,2013-02-16 12:55:00
7:15 AM,46.4,33.8,62,30.14,10.0,NW,8.1,-,N/A,,Clear,310,2013-02-16 13:15:00
7:35 AM,50.0,33.8,54,30.15,7.0,NW,10.4,16.1,N/A,,Clear,310,2013-02-16 13:35:00
7:55 AM,50.0,33.8,54,30.17,7.0,NW,15.0,20.7,N/A,,Clear,310,2013-02-16 13:55:00
8:15 AM,50.0,33.8,54,30.18,7.0,NW,11.5,20.7,N/A,,Clear,320,2013-02-16 14:15:00
8:35 AM,50.0,33.8,54,30.18,7.0,NW,13.8,23.0,N/A,,Clear,310,2013-02-16 14:35:00
8:55 AM,50.0,33.8,54,30.19,7.0,NW,17.3,25.3,N/A,,Clear,320,2013-02-16 14:55:00
9:15 AM,50.0,33.8,54,30.20,7.0,NNW,15.0,19.6,N/A,,Clear,330,2013-02-16 15:15:00
9:35 AM,51.8,32.0,47,30.20,7.0,NW,12.7,20.7,N/A,,Clear,310,2013-02-16 15:35:00
11:55 AM,53.6,26.6,35,30.19,7.0,WNW,15.0,25.3,N/A,,Clear,290,2013-02-16 17:55:00
12:35 PM,53.6,24.8,33,30.18,10.0,WNW,13.8,21.9,N/A,,Clear,290,2013-02-16 18:35:00
12:55 PM,53.6,23.0,30,30.16,7.0,NW,12.7,26.5,N/A,,Clear,310,2013-02-16 18:55:00
1:15 PM,53.6,23.0,30,30.16,7.0,NW,15.0,20.7,N/A,,Clear,320,2013-02-16 19:15:00
1:35 PM,53.6,23.0,30,30.15,7.0,NW,12.7,24.2,N/A,,Clear,310,2013-02-16 19:35:00
1:55 PM,55.4,17.6,23,30.15,7.0,WNW,17.3,25.3,N/A,,Clear,300,2013-02-16 19:55:00
2:15 PM,55.4,19.4,25,30.14,7.0,NW,15.0,25.3,N/A,,Scattered Clouds,310,2013-02-16 20:15:00
2:35 PM,53.6,17.6,24,30.14,10.0,NW,19.6,29.9,N/A,,Clear,320,2013-02-16 20:35:00
2:55 PM,53.6,17.6,24,30.15,7.0,NW,19.6,27.6,N/A,,Clear,310,2013-02-16 20:55:00
3:15 PM,53.6,17.6,24,30.15,7.0,NW,17.3,25.3,N/A,,Clear,310,2013-02-16 21:15:00
3:35 PM,53.6,19.4,26,30.15,7.0,NW,15.0,26.5,N/A,,Clear,310,2013-02-16 21:35:00
3:55 PM,53.6,17.6,24,30.15,7.0,NW,16.1,23.0,N/A,,Clear,320,2013-02-16 21:55:00
4:15 PM,51.8,17.6,26,30.15,7.0,NW,11.5,23.0,N/A,,Clear,320,2013-02-16 22:15:00
4:35 PM,51.8,17.6,26,30.15,7.0,NNW,15.0,19.6,N/A,,Clear,330,2013-02-16 22:35:00
4:55 PM,51.8,17.6,26,30.16,10.0,NW,17.3,20.7,N/A,,Clear,310,2013-02-16 22:55:00
5:15 PM,50.0,15.8,26,30.16,10.0,NW,11.5,19.6,N/A,,Clear,310,2013-02-16 23:15:00
5:35 PM,50.0,17.6,28,30.18,10.0,NW,9.2,20.7,N/A,,Clear,320,2013-02-16 23:35:00
6:35 PM,46.4,17.6,32,30.21,10.0,NW,12.7,17.3,N/A,,Clear,310,2013-02-17 00:35:00
7:15 PM,46.4,17.6,32,30.22,10.0,NW,13.8,19.6,N/A,,Clear,310,2013-02-17 01:15:00
7:35 PM,46.4,17.6,32,30.23,10.0,NW,10.4,17.3,N/A,,Clear,320,2013-02-17 01:35:00
7:55 PM,46.4,17.6,32,30.25,10.0,NW,10.4,21.9,N/A,,Clear,320,2013-02-17 01:55:00
8:15 PM,44.6,19.4,37,30.26,10.0,NNW,9.2,16.1,N/A,,Clear,330,2013-02-17 02:15:00
8:35 PM,44.6,19.4,37,30.26,10.0,NNW,10.4,18.4,N/A,,Clear,330,2013-02-17 02:35:00
9:15 PM,44.6,17.6,34,30.28,10.0,NNW,10.4,-,N/A,,Clear,340,2013-02-17 03:15:00
9:35 PM,42.8,17.6,36,30.28,10.0,North,6.9,-,N/A,,Clear,350,2013-02-17 03:35:00
9:55 PM,42.8,19.4,39,30.29,10.0,NNW,4.6,-,N/A,,Clear,340,2013-02-17 03:55:00
10:15 PM,41.0,21.2,45,30.29,10.0,NNW,3.5,-,N/A,,Clear,340,2013-02-17 04:15:00
10:35 PM,37.4,21.2,52,30.29,10.0,NNW,3.5,-,N/A,,Clear,340,2013-02-17 04:35:00
10:55 PM,35.6,23.0,60,30.29,10.0,Calm,Calm,-,N/A,,Clear,0,2013-02-17 04:55:00
11:15 PM,33.8,26.6,75,30.29,7.0,Calm,Calm,-,N/A,,Clear,0,2013-02-17 05:15:00
11:35 PM,32.0,26.6,80,30.29,10.0,Calm,Calm,-,N/A,,Clear,0,2013-02-17 05:35:00
11:55 PM,32.0,26.6,80,30.29,10.0,North,3.5,-,N/A,,Clear,360,2013-02-17 05:55:00